Location: Caltech
(34.1382°N, 118.1253°W)
Time: 15:07:47
(UTC-07:00)

SL-16 R/B - Visible Passes

Search period start: 17 October 2017 00:00
Search period end: 27 October 2017 00:00
Orbit: 842 x 846 km, 71.0° (Epoch: 16 October)

Date Brightness Start Highest point End Pass type
(mag) Time Alt. Az. Time Alt. Az. Time Alt. Az.
17 Oct 2.5 19:01:14 10° NNW 19:06:54 72° WSW 19:12:31 10° SSE visible
18 Oct 2.5 18:46:57 10° NNW 18:52:38 75° WSW 18:58:16 10° SSE visible
19 Oct 2.5 18:32:41 10° NNW 18:38:22 79° WSW 18:44:01 10° SSE visible
25 Oct 3.9 06:25:35 10° S 06:30:46 38° ESE 06:35:59 10° NE visible
26 Oct 3.9 06:11:23 10° S 06:16:31 37° ESE 06:21:41 10° NE visible
26 Oct 5.9 18:40:40 10° W 18:41:49 11° W 18:42:58 10° WSW visible
